Location: DARK SKY Beskydy - Park tmavé oblohy, www.darkskybeskydy.cz
(49.4926°N, 18.5016°E)
Time: 10:44:59
(UTC+02:00)

BlueWalker 3 - Pass Details

Date: 22 June 2024
Orbit: 480 x 491 km, 53.2° (Epoch: 23 July)

Event Time Altitude Azimuth Distance (km) Brightness Sun altitude
Rises 00:09:10 0° 280° (W) 2,538 5.8 -16.6°
Reaches altitude 10° 00:11:24 10° 286° (WNW) 1,658 4.9 -16.6°
Maximum altitude 00:15:00 45° 1° (N) 661 3.0 -16.7°
Drops below altitude 10° 00:18:36 10° 75° (ENE) 1,656 4.6 -16.8°
Sets 00:20:50 0° 82° (E) 2,536 5.5 -16.8°
